This demonstration page uses our WeatherBlox Daily Observations layout. Learn more.

Left ArrowRight Arrow

36.17497, -115.13722

Hourly Observations for October 23, 2019

Temp ( °F °C ) Dew Point ( °F °C ) Humidity (%) Winds ( mph kmh ) Pressure ( in mb ) Visibility ( mi km ) Precip ( " mm )
12:56 am 00:56 Clear 56 13.4 22 -5.7 26 26 NE 6 9 30.01 1016 10 16.0934 N/A
1:58 am 01:58 Clear 64 17.9 26 -3.5 23 23 NE 7 11 29.99 1016 10 16.0934 N/A
2:58 am 02:58 Clear 57 13.9 24 -4.3 28 28 N N/A 29.98 1015 10 16.0934 N/A
3:58 am 03:58 Clear 57 14.1 25 -3.7 29 29 N N/A 29.98 1015 10 16.0934 N/A
4:58 am 04:58 Clear 55 13 24 -4.6 29 29 N N/A 29.99 1016 10 16.0934 N/A
6:58 am 06:58 Sunny 54 12.1 24 -4.5 31 31 N N/A 30.01 1016 10 16.0934 N/A
7:58 am 07:58 Sunny 57 13.7 25 -4 29 29 N N/A 30.02 1017 10 16.0934 N/A
8:58 am 08:58 Sunny 62 16.5 26 -3.1 26 26 SE 3 6 30.04 1017 10 16.0934 N/A
9:58 am 09:58 Sunny 70 21.3 30 -1.3 22 22 N N/A 30.03 1017 10 16.0934 N/A
10:43 am 10:43 Sunny 77 25 28 -2 17 17 NW 14 22 30.01 1016 10 16.0934 N/A
10:58 am 10:58 Sunny 77 25.1 29 -1.7 17 17 W 7 11 30.02 1017 10 16.0934 N/A
11:58 am 11:58 Sunny 80 26.7 28 -2.1 15 15 W 8 13 29.99 1016 10 16.0934 N/A
12:58 pm 12:58 Sunny 82 27.8 26 -3.2 13 13 N 12 19 29.96 1015 10 16.0934 N/A
1:58 pm 13:58 Sunny 83 28.3 23 -5 11 11 N 15 24 29.94 1014 10 16.0934 N/A
2:16 pm 14:16 Sunny 82 28 25 -4 12 12 N 14 22 29.94 1014 10 16.0934 N/A
2:58 pm 14:58 Sunny 83 28.2 25 -3.9 12 12 N 14 22 29.93 1013 10 16.0934 N/A
3:58 pm 15:58 Sunny 83 28.1 25 -4 12 12 NNE 9 15 29.91 1013 10 16.0934 N/A
4:58 pm 16:58 Sunny 82 28 25 -4.1 12 12 NNE 12 19 29.89 1012 10 16.0934 N/A
5:58 pm 17:58 Clear 79 26.2 24 -4.4 13 13 ENE 5 7 29.91 1013 10 16.0934 N/A
7:00 pm 19:00 Clear 73 22.8 20 -6.9 13 13 N 2 4 29.93 1013 10 16.0934 N/A
7:57 pm 19:57 Clear 69 20.8 24 -4.4 18 18 NW 7 11 29.93 1013 10 16.0934 N/A
8:55 pm 20:55 Clear 68 20 23 -5.1 18 18 N N/A 29.94 1014 10 16.0934 N/A
9:56 pm 21:56 Clear 65 18.6 18 -7.7 16 16 W 3 6 29.96 1015 10 16.0934 N/A
10:57 pm 22:57 Clear 67 19.4 11 -11.9 11 11 VRB 5 7 29.96 1014 10 16.0934 N/A
11:56 pm 23:56 Clear 68 19.8 11 -11.5 11 11 NNW 10 17 29.97 1015 10 16.0934 N/A

Powered by AerisWeather